Theta_e
304 304 304 303 302 301 300 301 301 301 301 301 302 303 303 303 304 304 306 306 308 310 310 311 314 317 320 321 321 320 320 320 320 320 321 322 322 321 320 320 321 321 321 322 322 322 322 322 322 322 321 321 320 320 321 321 321 320 319 320 319 319
302 302 302 301 302 301 300 299 298 300 301 300 301 301 301 301 302 302 303 304 304 306 306 308 311 314 316 318 319 319 320 320 320 320 320 320 320 321 321 321 320 320 320 320 321 321 321 321 322 322 321 321 320 320 320 320 320 320 319 319 319 319
303 302 300 300 298 299 297 298 300 301 300 299 300 301 301 300 301 301 302 303 304 303 305 306 307 309 313 315 317 318 319 320 319 320 320 319 319 320 319 319 320 320 319 319 319 320 320 320 320 321 321 320 320 320 320 319 319 318 319 318 318 318
302 301 299 299 299 300 300 300 298 299 299 301 300 299 300 300 301 300 302 301 303 303 305 306 306 308 310 312 314 316 318 319 319 319 318 317 319 318 319 318 319 319 319 318 319 319 319 320 320 320 320 319 319 319 320 319 318 317 317 317 316 316
300 299 299 300 299 299 298 299 299 300 299 298 298 299 301 300 301 300 300 301 302 303 304 305 306 307 308 310 312 313 315 316 316 316 316 317 318 316 317 318 318 318 318 318 318 318 318 319 319 319 319 318 318 317 317 318 317 316 315 315 316 316
297 297 299 300 299 298 299 300 300 299 297 299 297 299 300 299 298 299 298 299 300 301 301 303 304 304 305 305 308 309 311 313 313 313 314 316 316 315 316 316 318 317 317 317 316 316 317 317 317 316 316 318 317 316 317 316 317 317 316 316 316 315
302 300 298 297 298 297 299 300 300 298 298 297 298 299 298 297 296 296 297 296 298 298 298 299 299 300 302 303 304 305 306 307 308 309 311 313 313 315 314 313 313 315 315 317 317 317 316 316 316 317 316 316 316 316 317 317 317 317 317 317 317 311
300 298 296 296 297 298 299 299 299 298 297 299 296 296 297 297 293 293 294 294 295 297 296 297 296 298 299 300 301 303 304 305 306 308 308 310 314 313 313 314 312 312 314 314 315 316 316 315 314 315 316 316 315 315 316 316 317 317 317 317 317 317
301 301 299 297 296 296 298 298 299 297 296 297 295 293 293 295 292 291 292 294 294 295 297 297 297 297 297 298 300 301 303 304 304 305 307 307 308 310 311 310 310 310 311 313 313 314 315 315 313 315 315 316 316 316 316 316 317 317 317 317 317 317
298 299 299 298 298 297 297 297 297 296 296 296 295 295 293 296 292 293 294 293 294 294 296 296 296 296 297 297 298 300 302 303 303 304 305 303 306 308 309 310 311 310 308 311 312 314 313 313 313 314 315 315 316 316 316 316 316 316 316 316 316 316
297 298 298 299 298 297 297 297 297 295 293 293 293 292 295 294 292 294 293 292 293 295 296 295 295 296 295 296 297 298 300 301 301 302 303 303 304 306 306 308 309 308 309 309 310 311 311 312 313 314 314 313 314 316 316 317 316 316 315 315 315 315
295 296 296 296 297 298 297 297 297 297 297 296 294 294 296 293 294 293 293 293 294 294 294 294 294 294 294 295 296 296 297 297 298 298 300 302 302 302 301 301 302 305 308 309 309 309 310 311 314 307 305 306 313 316 317 317 316 315 315 314 314 314
293 293 293 295 298 298 299 299 298 295 295 295 295 295 295 292 293 293 292 294 294 293 292 292 293 293 293 294 294 294 294 296 296 296 297 298 299 299 298 297 300 303 305 307 309 310 309 311 313 304 305 304 303 311 316 316 316 315 315 314 314 314
294 293 294 295 295 296 297 298 297 295 296 295 295 295 294 293 292 292 292 292 293 293 293 292 292 291 292 292 293 293 293 292 292 293 294 295 295 296 293 296 299 302 304 306 307 308 310 311 303 304 304 303 302 301 309 315 316 315 315 315 314 314
292 295 296 294 296 296 295 293 293 294 294 294 294 294 292 292 292 292 292 292 292 292 293 292 292 292 292 292 292 291 291 290 291 291 292 293 292 290 293 296 297 299 300 301 303 305 308 310 304 303 302 302 302 302 303 312 314 315 315 315 314 314
293 293 294 294 293 292 291 291 291 291 291 292 292 292 292 292 292 291 292 292 292 292 292 292 292 292 292 291 290 289 289 289 290 290 289 289 289 290 291 291 293 295 296 297 298 300 302 304 301 301 301 300 300 301 302 309 312 312 313 314 314 314
290 290 291 292 291 289 290 292 292 292 292 291 291 290 290 290 290 291 290 291 291 291 291 291 291 291 291 291 290 289 289 288 288 288 289 288 288 289 290 290 290 292 293 295 295 296 297 300 298 298 298 299 299 299 298 305 308 310 311 312 313 313
289 288 289 289 289 290 289 289 290 291 291 290 290 290 290 289 289 289 289 289 289 289 289 289 289 290 290 290 289 289 289 289 288 288 288 287 287 287 287 287 289 291 292 293 293 294 295 296 296 296 296 297 298 298 300 302 304 306 307 309 310 310
287 287 287 286 286 289 289 288 288 289 289 289 290 289 289 289 289 289 289 289 289 289 289 289 289 288 288 288 288 288 288 288 289 288 286 287 287 286 287 287 288 288 289 290 291 292 293 293 293 294 295 296 297 297 300 301 301 303 304 306 306 307
286 286 285 285 285 285 285 284 286 286 286 287 287 288 288 288 288 289 288 288 288 288 288 288 288 288 288 288 287 287 287 287 287 287 287 287 288 287 287 287 287 287 287 288 289 290 291 291 291 293 294 294 295 295 298 299 299 299 300 301 301 301
286 287 285 285 286 286 284 284 284 285 285 285 285 285 286 287 287 288 287 287 287 287 287 287 287 286 287 287 287 287 287 287 287 287 287 287 287 287 287 287 287 287 287 286 288 288 289 290 290 292 293 293 294 293 296 296 297 296 297 298 299 299
285 286 286 286 285 284 284 283 284 283 284 284 283 284 285 286 286 286 286 286 286 286 286 286 285 285 285 285 286 286 286 287 286 287 287 286 287 287 287 287 287 287 287 287 288 289 290 290 290 291 292 293 293 294 294 295 295 294 295 296 296 297
285 285 284 285 284 284 284 284 283 284 283 283 282 283 284 285 285 285 285 285 285 285 284 285 284 284 285 285 285 285 285 285 285 286 286 286 286 286 286 286 286 287 287 288 288 289 289 290 290 290 291 292 293 294 293 293 294 294 294 295 294 296
284 283 284 285 285 284 284 284 283 283 282 282 283 283 284 284 284 284 284 284 284 284 285 285 285 285 286 286 285 285 285 285 284 284 285 285 285 285 285 286 286 287 287 288 288 288 289 288 288 289 290 291 292 293 293 292 292 293 293 293 294 294
283 284 283 285 284 284 283 283 283 283 282 283 284 284 283 283 283 283 283 283 283 284 284 285 285 286 286 286 286 286 286 286 285 284 283 283 284 284 285 285 286 286 286 287 287 287 287 287 287 287 288 289 291 292 292 293 292 293 292 292 292 293
284 283 282 283 284 284 283 283 282 283 283 285 286 286 286 285 284 284 284 283 283 283 284 285 285 286 286 286 286 286 286 286 286 286 285 284 283 284 285 285 284 285 286 286 287 286 285 285 285 286 287 288 290 291 292 292 293 293 291 291 292 293
282 282 281 281 282 283 283 281 282 281 282 284 283 284 285 285 285 285 285 285 284 284 285 285 285 285 286 286 286 285 286 286 286 286 286 285 285 284 284 285 285 285 285 286 286 287 286 286 285 285 287 287 288 290 291 292 292 292 292 290 290 290
280 280 280 281 281 282 282 281 280 282 284 283 283 282 282 282 283 283 284 284 285 285 285 284 285 285 285 286 286 285 285 285 285 285 285 285 285 284 284 284 284 284 285 285 286 286 287 286 286 286 286 286 286 287 288 289 289 288 289 288 289 288
281 281 280 280 280 281 281 279 281 282 283 282 282 282 281 281 282 282 283 283 284 284 284 284 284 284 284 284 285 285 285 285 285 285 285 285 285 285 284 284 284 284 284 285 285 286 286 286 286 285 285 286 286 287 288 288 288 287 287 288 288 288
278 279 280 281 282 281 281 281 281 282 281 281 282 282 282 282 282 282 281 281 282 283 283 283 283 283 283 284 284 284 284 285 285 285 285 285 285 284 284 284 284 284 284 285 285 286 286 286 286 286 286 286 288 288 288 288 288 288 289 289 289 289
277 279 279 281 282 281 282 282 281 282 282 283 282 282 281 281 281 281 280 280 281 281 282 283 282 282 282 283 283 284 284 284 285 285 285 286 286 286 285 285 286 286 285 285 286 286 286 287 287 287 288 288 289 288 289 289 289 289 289 288 290 289
277 278 279 280 280 280 281 281 282 282 282 282 282 281 281 281 280 279 278 279 280 280 280 280 280 281 282 282 283 283 284 285 286 286 285 285 286 286 287 287 286 287 287 286 287 286 287 287 288 289 289 289 289 289 289 289 290 290 290 289 290 289
277 276 276 279 279 279 279 279 280 280 281 281 282 281 280 278 278 278 278 278 278 279 279 279 279 280 280 281 282 283 283 283 285 286 286 286 286 286 287 287 287 287 287 286 286 287 288 288 288 288 288 288 288 289 289 289 289 290 290 291 289 288
276 276 276 277 277 277 277 277 278 279 280 280 278 277 276 276 276 276 276 276 276 278 278 278 278 279 279 280 281 282 282 282 282 284 286 286 286 286 286 287 287 287 287 287 287 287 287 287 287 288 288 288 287 287 288 288 289 289 290 290 290 288
275 275 275 275 275 275 276 276 277 278 277 275 274 274 274 274 274 274 274 275 276 277 277 277 277 278 278 278 278 279 281 282 282 281 282 285 286 286 286 286 287 287 287 287 287 287 286 287 287 287 287 287 287 287 287 288 288 289 290 290 288 287
273 273 273 273 273 274 274 275 276 275 272 270 272 272 272 272 272 273 274 275 276 276 276 276 276 276 277 277 278 279 280 281 282 282 282 282 282 284 285 286 287 287 287 287 287 287 287 287 287 287 287 286 286 287 287 287 287 289 290 289 288 287
271 271 272 273 274 273 274 274 274 273 271 271 272 272 272 273 273 274 275 276 276 276 276 276 276 276 276 277 277 278 279 279 281 281 281 281 281 281 282 283 285 286 287 287 287 287 287 287 287 287 287 287 287 287 288 288 286 285 286 287 288 287
270 270 271 272 272 271 271 272 273 273 272 272 273 273 273 274 274 275 275 275 275 275 275 275 276 276 276 276 277 278 278 279 280 280 281 282 282 282 282 283 284 285 286 286 286 286 287 287 287 287 287 287 287 287 287 285 284 285 285 286 287 287
Wind_Speed
1 2 1 2 4 4 4 4 4 4 4 4 4 6 6 5 5 5 5 5 6 6 7 7 8 8 9 9 9 9 10 11 11 11 12 11 10 10 9 9 9 11 12 12 13 12 13 13 13 13 13 13 13 13 13 13 13 14 14 13 13 13
2 1 0 0 2 3 4 4 3 5 5 4 4 5 5 4 5 5 6 6 5 7 6 7 7 7 8 8 8 9 11 12 11 12 11 12 9 9 10 9 9 10 11 10 11 11 11 12 12 12 13 12 13 13 12 12 13 15 15 14 12 11
0 0 1 2 3 3 2 4 5 5 4 5 5 5 7 4 4 4 6 5 6 6 8 8 7 8 7 8 8 10 11 11 11 11 11 8 9 9 9 9 10 9 9 10 10 11 11 12 12 11 11 12 13 13 13 12 13 15 14 13 14 12
1 1 3 2 6 6 7 6 4 5 5 5 4 4 6 5 4 4 5 4 5 5 7 8 7 7 7 7 8 9 10 10 10 10 8 9 10 8 10 10 9 9 9 9 10 10 11 11 12 11 11 12 12 13 11 12 13 14 14 13 14 13
2 1 5 7 7 6 6 6 5 5 5 5 5 4 7 4 5 4 4 4 4 6 6 6 7 7 7 8 8 9 9 9 9 7 9 9 9 8 9 10 10 10 10 10 10 10 11 12 11 10 11 12 12 13 13 13 13 14 15 15 16 15
1 3 4 5 6 6 6 7 6 5 4 5 5 5 6 5 4 5 4 4 5 6 6 7 7 7 8 7 9 9 9 8 8 7 8 10 9 10 10 9 10 10 10 10 11 11 11 11 11 10 10 13 13 13 14 14 14 14 15 16 16 14
1 3 4 5 5 5 6 7 7 5 5 5 5 5 5 5 4 4 5 4 6 7 7 9 7 7 8 9 8 9 9 8 8 7 8 8 9 10 9 9 9 10 10 11 12 12 11 12 11 11 11 12 12 13 14 14 14 15 15 16 15 14
4 4 5 5 5 6 6 6 6 6 5 6 4 4 5 6 4 4 5 5 5 7 8 9 7 8 8 9 8 9 9 9 7 8 7 8 10 9 9 10 9 9 11 11 12 11 12 11 10 11 12 13 12 12 13 13 13 14 15 15 15 14
7 6 5 5 6 6 6 5 6 5 5 6 5 4 5 6 5 4 4 6 6 6 8 9 9 9 8 8 9 8 8 8 8 8 9 7 8 9 10 8 9 9 9 11 10 11 11 10 10 11 12 13 13 13 14 14 14 14 14 13 14 13
6 7 6 6 7 6 5 5 5 5 6 5 5 6 5 5 5 5 6 6 6 6 8 7 7 8 9 8 8 9 9 8 8 8 8 6 8 9 9 9 9 9 8 10 11 12 10 10 10 11 12 12 12 11 12 12 12 13 12 13 13 12
6 7 7 7 6 6 6 6 6 5 4 3 4 5 6 6 5 6 6 6 6 7 7 7 6 6 7 7 7 8 9 8 8 8 8 8 8 8 7 7 7 8 9 10 10 10 9 10 12 11 11 10 11 10 12 12 12 12 13 13 12 12
7 7 6 6 6 7 6 5 4 4 4 5 5 5 6 6 6 5 6 6 7 6 6 7 7 7 7 7 8 8 8 8 8 8 8 9 8 7 6 6 6 7 9 10 9 9 9 10 10 13 16 14 11 10 11 11 12 12 12 12 12 12
6 5 5 6 8 6 5 3 3 4 4 5 5 5 6 5 6 6 6 7 6 6 6 6 6 6 7 7 7 7 7 8 7 7 8 8 7 7 7 6 8 8 7 8 9 9 9 10 10 14 14 15 16 12 11 11 11 11 11 12 12 13
5 5 6 6 5 5 5 6 5 5 6 5 5 6 5 5 5 6 6 7 7 7 7 7 6 6 7 7 7 7 7 7 7 8 8 7 8 8 5 7 8 8 8 8 9 9 10 10 12 13 14 14 14 13 11 10 11 11 12 12 12 12
4 4 4 4 5 5 4 4 5 6 6 6 6 5 5 5 5 5 6 7 7 7 8 7 7 7 7 7 7 7 7 7 8 8 8 8 7 5 7 8 8 9 8 8 10 11 11 10 12 12 14 14 14 14 12 11 12 12 12 12 13 13
3 2 1 1 2 3 3 3 4 4 3 4 4 5 5 5 6 5 5 6 7 7 8 8 8 9 9 8 7 6 7 7 8 7 7 7 6 6 8 7 9 9 9 9 9 10 10 11 13 14 14 12 13 15 14 13 14 14 14 14 14 13
4 5 6 6 5 3 4 6 6 6 5 5 5 3 4 4 5 5 5 6 6 7 8 9 9 9 10 10 8 8 7 6 7 7 7 7 7 7 8 8 7 8 7 8 8 10 12 11 13 14 16 15 15 13 10 9 10 11 13 14 13 13
4 5 5 4 5 5 5 5 5 6 7 5 6 7 6 4 4 4 4 6 6 7 7 8 9 9 9 10 10 9 9 8 7 7 7 6 5 5 6 7 6 9 9 8 8 9 12 11 12 15 16 16 15 15 11 10 10 11 12 12 12 11
2 2 2 4 4 6 7 5 5 6 6 7 7 7 7 7 7 7 7 6 7 8 8 8 8 9 9 9 9 10 10 10 11 8 5 6 6 5 6 7 7 7 7 8 7 9 12 11 9 12 15 14 14 12 10 10 10 12 13 13 11 11
1 1 3 3 4 4 4 4 5 5 5 7 7 8 8 8 9 8 8 8 8 8 8 7 7 9 9 9 9 10 10 9 8 7 6 7 9 8 6 6 7 6 6 8 9 8 11 12 7 11 13 13 13 12 11 10 10 12 13 13 11 9
1 1 1 3 5 5 4 4 5 5 5 5 6 5 6 8 9 10 11 11 9 8 8 7 6 7 7 8 9 8 10 10 10 9 7 7 7 8 7 6 7 7 5 6 8 9 11 11 9 10 13 15 14 11 9 9 9 12 13 10 11 11
1 5 7 6 4 3 4 4 4 5 5 5 4 6 6 7 7 8 8 8 9 8 8 7 7 6 6 7 7 7 8 8 9 9 8 7 6 7 6 6 7 9 8 4 6 7 7 10 9 7 12 13 14 15 11 8 9 11 11 9 10 11
6 5 5 5 4 3 2 2 3 4 4 5 4 6 6 6 7 7 8 8 8 8 8 7 7 9 8 6 7 7 7 6 7 8 8 9 8 6 7 7 7 8 9 6 6 7 7 8 9 8 11 13 14 15 14 8 10 10 10 10 10 10
5 5 6 6 6 4 3 2 3 3 3 4 5 5 5 5 6 6 7 9 9 9 8 8 7 7 8 7 7 7 7 6 6 6 7 7 7 8 9 8 7 8 9 7 6 6 7 7 10 9 10 12 14 14 16 11 9 8 9 11 11 11
4 4 5 6 5 5 4 3 4 4 3 4 6 4 4 5 4 5 6 7 8 8 9 9 9 9 7 7 7 7 9 7 6 6 5 6 6 7 8 8 8 8 10 9 6 5 5 5 6 10 8 10 13 14 14 16 13 13 10 10 12 11
1 2 4 5 5 5 5 3 4 4 5 7 5 5 5 5 5 5 6 6 7 8 8 8 9 8 8 8 8 7 8 9 8 7 6 6 6 7 8 7 7 7 8 10 11 5 4 4 4 7 10 9 12 13 14 14 15 15 10 10 11 10
2 2 3 4 4 5 5 4 4 5 5 6 4 6 7 7 8 8 8 8 8 9 10 10 9 8 7 7 7 8 8 8 7 8 6 6 7 6 7 8 6 7 9 9 9 10 7 5 4 5 7 10 11 12 12 13 14 13 15 11 9 8
4 3 4 5 4 4 4 4 4 5 7 5 5 5 6 7 8 9 9 8 7 8 9 10 9 8 8 8 6 6 6 8 8 8 8 7 7 6 6 8 7 7 8 9 9 9 9 6 5 6 5 6 7 7 10 12 12 13 14 14 12 14
5 6 6 5 5 5 4 5 5 5 6 6 5 6 6 7 8 9 8 8 8 8 7 10 9 10 8 6 7 6 6 6 6 7 7 6 7 8 7 7 7 7 7 9 9 10 10 8 6 6 5 5 5 5 5 6 7 9 10 8 8 9
3 5 5 7 6 4 5 4 5 5 5 5 6 6 7 8 8 9 9 10 9 9 10 11 13 13 12 10 8 9 8 6 6 7 7 7 7 8 9 7 7 7 8 9 9 10 11 9 7 6 6 6 5 6 6 5 5 5 5 7 7 7
5 5 5 7 5 4 4 4 5 5 7 7 6 7 7 9 7 7 7 7 7 8 7 8 8 9 11 12 11 9 8 9 8 8 9 6 6 7 8 9 9 8 7 7 8 9 12 11 9 6 7 10 12 12 11 9 8 7 7 8 11 10
5 5 5 5 4 5 6 6 6 7 6 7 6 7 9 9 8 5 6 6 7 8 9 9 9 9 9 10 11 12 12 9 11 11 9 11 7 12 14 12 10 9 7 9 8 6 10 11 11 14 18 17 17 17 16 15 15 15 13 13 15 11
4 4 5 6 6 7 7 7 7 8 7 7 7 7 7 6 7 7 7 7 7 9 10 10 11 10 9 10 10 10 12 15 11 10 15 16 15 15 14 15 17 17 15 11 11 9 13 16 17 16 16 17 17 17 16 16 15 16 15 15 11 8
5 6 6 7 7 8 8 9 8 7 7 6 5 5 6 6 7 8 8 8 9 10 10 10 11 11 10 9 8 10 11 11 14 15 8 11 13 12 14 15 16 16 16 17 15 13 10 10 13 15 15 15 16 17 17 17 17 17 16 16 14 11
7 7 8 8 8 9 9 9 9 7 4 4 4 5 7 7 8 9 10 9 10 10 11 11 10 10 10 11 11 11 10 11 13 14 17 11 9 15 16 15 17 17 17 16 15 16 15 16 15 17 17 17 17 17 16 16 17 16 17 16 12 9
9 9 9 9 9 9 8 8 8 5 3 3 4 5 6 7 7 8 8 9 11 11 10 9 10 10 10 10 11 12 11 11 10 13 13 15 15 11 9 10 12 13 14 14 15 16 16 16 17 16 16 16 16 16 17 16 12 13 16 14 11 9
10 9 9 10 10 8 7 6 6 6 6 6 7 9 9 9 9 8 10 15 13 9 9 9 9 9 9 10 11 11 12 12 12 11 12 13 15 14 14 12 9 9 12 12 10 11 14 16 17 17 16 16 15 16 17 16 10 8 7 7 8 9
9 9 9 9 7 5 7 9 8 7 6 7 9 9 10 9 9 9 8 8 10 9 9 9 9 9 9 10 10 11 12 13 13 13 12 11 12 12 13 12 9 7 9 14 16 16 16 17 17 16 16 16 16 15 14 11 9 9 8 7 8 8
Wind_Direction
164 189 212 252 250 257 253 262 272 284 278 257 238 247 241 247 266 273 277 266 265 266 265 256 252 245 243 242 240 238 236 238 238 239 241 245 241 239 237 230 228 225 224 223 226 224 223 222 223 220 221 219 224 223 227 226 226 229 230 228 227 230
190 188 199 358 313 287 272 271 289 284 265 267 267 271 265 267 265 262 269 268 265 273 275 271 261 256 250 247 240 235 235 237 238 239 243 242 242 242 239 237 234 231 230 227 228 228 226 225 224 222 222 220 224 224 226 227 225 231 233 232 228 229
147 256 287 319 322 335 301 286 280 272 286 274 259 255 267 251 252 254 259 265 269 269 273 273 274 268 261 258 247 243 241 239 236 237 238 243 241 240 242 239 239 236 232 231 228 227 226 224 225 222 222 222 225 226 228 228 226 231 234 234 234 230
230 297 296 324 3 342 330 313 300 290 274 255 262 264 266 255 273 248 256 259 262 269 273 277 276 272 272 264 259 249 249 246 240 236 235 234 240 232 238 239 241 238 234 231 229 228 228 226 225 222 220 222 225 228 227 229 227 232 235 232 236 230
201 250 3 352 333 312 301 302 295 274 273 279 262 244 267 244 257 260 256 265 274 274 274 280 281 279 274 269 264 258 253 251 248 239 234 235 239 233 229 234 234 235 233 232 230 228 228 226 227 222 219 222 224 226 227 227 226 229 232 232 234 232
16 23 342 317 308 302 292 287 292 281 277 273 269 256 274 294 268 264 267 270 277 278 288 282 279 283 278 273 266 263 260 255 253 246 241 240 239 236 232 226 230 230 229 231 231 227 226 225 224 221 218 221 221 225 227 226 227 228 230 233 234 233
267 269 286 279 276 283 278 282 286 281 284 292 286 287 287 285 279 263 264 264 277 287 286 285 287 284 280 274 272 269 268 264 260 253 248 248 244 240 237 235 225 228 226 228 230 229 226 226 223 221 222 223 224 225 227 227 228 230 232 233 234 232
266 298 276 266 264 259 269 279 281 279 285 293 285 278 302 291 279 254 260 271 279 285 287 283 289 282 276 276 278 274 274 272 264 260 254 245 250 248 240 236 230 224 227 228 230 229 230 226 222 222 224 224 224 226 228 229 229 231 232 233 233 232
285 272 271 257 259 260 263 270 280 282 292 294 295 288 285 285 284 279 275 276 273 284 286 292 292 290 289 288 285 285 283 277 272 267 262 252 247 251 250 242 239 235 230 233 230 231 230 228 222 225 228 229 228 227 229 231 233 234 234 236 235 235
284 292 276 274 269 271 274 269 264 267 274 284 309 318 316 310 325 306 296 292 291 284 283 287 294 300 298 299 297 295 294 296 292 284 278 276 262 253 253 253 245 245 234 237 233 234 228 229 229 229 230 231 231 232 235 234 236 239 240 240 239 236
272 273 273 268 276 280 279 280 287 305 314 312 327 338 334 331 337 321 311 307 294 287 293 300 301 297 300 300 299 298 297 296 294 293 288 281 273 267 261 261 259 256 249 247 244 243 233 229 232 230 228 230 233 233 238 238 237 237 239 240 239 237
248 250 263 285 284 277 283 305 314 320 337 336 337 343 331 350 333 330 320 312 298 297 300 299 300 302 304 304 301 299 297 296 294 292 290 287 283 287 289 291 281 267 262 261 256 248 243 240 240 237 230 223 224 228 233 237 239 237 238 239 241 239
257 260 282 284 287 314 338 327 336 345 350 352 348 340 328 345 334 330 325 316 311 306 302 302 297 303 304 299 301 299 299 296 296 294 291 288 290 292 295 301 296 283 276 270 268 263 252 247 246 242 234 232 229 229 235 237 242 241 242 241 241 243
294 313 287 294 328 354 356 357 354 8 4 343 341 328 329 338 331 325 320 313 317 321 320 315 310 310 304 307 302 302 299 299 298 294 289 290 291 287 301 294 279 281 283 283 279 271 264 259 254 250 249 242 236 231 239 247 248 245 245 245 243 244
336 359 9 23 8 360 355 6 24 8 339 340 324 331 338 338 330 325 325 325 328 327 327 325 326 319 313 310 307 306 307 304 299 294 294 289 286 301 292 282 289 284 283 277 278 279 279 277 272 265 259 254 249 242 237 252 253 256 255 250 249 249
14 23 57 31 350 354 339 21 21 337 303 307 320 339 341 340 337 337 331 334 333 331 329 328 329 326 320 318 316 315 314 311 302 297 291 289 298 291 285 284 279 280 281 281 281 279 278 275 284 293 289 281 267 259 247 246 246 246 250 248 244 242
4 7 5 8 358 356 14 11 3 351 350 351 352 355 348 349 338 343 344 341 331 332 332 331 329 325 322 322 322 321 314 305 301 301 295 295 290 288 281 284 285 277 275 277 276 279 279 277 284 285 286 292 291 286 273 262 260 254 252 253 255 254
7 357 343 335 5 5 19 6 350 2 346 338 353 351 353 351 350 340 346 340 335 333 329 328 325 322 322 322 323 323 320 317 307 303 301 292 288 278 280 281 269 276 277 272 273 273 274 273 276 278 280 280 280 283 281 271 267 264 261 258 252 253
18 343 348 356 10 14 360 345 359 1 351 355 350 351 347 350 351 348 344 336 332 330 328 328 323 320 319 320 321 319 319 319 318 313 301 300 287 281 279 274 272 271 275 276 268 269 273 276 273 270 271 272 271 272 268 267 264 263 264 262 261 255
350 357 62 24 9 4 352 349 360 4 357 349 346 351 348 350 345 338 335 331 329 325 324 322 321 318 317 319 317 314 310 306 298 296 306 302 303 299 281 275 281 269 261 268 269 261 276 282 286 279 279 276 269 259 261 262 264 264 258 260 258 258
167 179 114 62 28 348 354 356 6 5 353 348 345 346 344 342 336 337 333 328 324 321 317 313 311 308 308 311 310 310 308 307 305 302 302 293 288 284 292 288 284 281 260 252 263 266 266 279 282 272 271 269 266 260 260 262 259 262 262 265 266 256
70 24 20 19 354 318 349 2 15 360 346 339 345 348 342 333 325 317 314 313 315 316 314 311 307 301 300 300 297 296 293 296 304 304 304 296 285 289 292 287 284 288 288 273 270 271 266 277 281 271 267 267 263 256 254 257 260 263 271 270 268 274
33 12 341 326 325 339 355 41 31 350 334 333 344 334 319 312 314 316 315 314 313 313 311 309 306 307 302 289 289 286 286 286 286 295 301 303 304 296 293 290 288 289 289 284 274 275 270 265 277 274 262 264 263 261 255 256 254 264 272 274 270 263
9 356 342 331 335 336 350 36 9 328 317 326 315 298 299 304 304 308 312 315 313 312 311 311 305 296 295 296 298 301 294 284 275 277 282 284 292 299 299 298 293 290 289 285 263 259 264 254 248 265 259 257 259 259 255 254 258 253 264 267 266 265
359 341 320 315 323 329 328 2 341 327 323 315 290 280 283 285 289 297 299 301 306 308 309 309 310 309 306 300 299 300 305 304 301 290 279 284 291 289 291 292 293 295 298 298 279 255 259 260 259 256 261 258 257 259 259 258 259 260 255 260 266 266
328 314 312 311 311 318 317 331 311 312 320 300 300 312 303 297 297 299 307 309 308 309 309 307 304 298 295 300 305 308 305 311 311 306 302 298 295 300 300 296 292 292 295 302 308 293 259 258 256 258 258 260 256 256 258 261 262 262 258 255 265 276
332 304 300 296 295 301 306 301 300 298 297 286 309 310 315 319 321 319 314 312 313 315 315 311 305 300 298 301 306 311 315 311 315 314 311 306 303 295 295 295 297 295 297 300 298 304 305 289 278 268 264 261 260 257 258 261 264 265 265 267 268 267
350 338 312 302 287 281 282 284 279 286 279 295 305 306 314 316 318 315 312 307 305 304 303 303 303 303 304 304 299 294 292 300 308 306 307 307 296 293 290 296 300 298 298 297 299 302 304 306 295 286 275 270 268 263 260 257 258 262 263 263 272 274
338 325 319 314 297 291 282 276 276 267 283 294 300 305 307 310 308 305 307 309 309 309 309 312 314 313 305 300 299 290 285 284 285 286 289 289 295 295 292 288 294 297 296 298 302 303 306 308 311 301 296 280 279 274 270 266 262 262 268 274 272 274
306 304 308 307 302 301 300 295 292 293 298 297 303 308 311 311 310 310 313 317 320 322 325 322 321 321 315 315 311 305 301 281 272 282 280 287 287 296 296 292 287 287 293 300 302 305 304 304 306 308 311 312 315 310 295 280 276 276 273 280 280 277
302 290 295 295 306 325 325 317 311 312 309 307 306 306 309 303 300 295 295 297 301 300 302 301 299 303 306 307 310 299 292 300 299 287 282 242 237 250 270 288 278 274 273 273 286 299 301 300 302 300 312 307 305 305 307 308 302 297 286 271 277 289
290 295 301 307 325 335 329 323 321 315 310 306 307 312 311 308 307 303 300 304 310 312 314 311 309 305 302 302 303 306 301 270 263 275 280 292 258 244 249 248 266 269 278 284 268 243 271 285 293 304 305 302 301 297 293 289 288 285 283 283 281 283
329 344 340 325 329 320 321 317 318 315 312 312 313 316 309 318 318 315 314 318 317 317 313 310 310 309 304 303 303 303 304 309 297 260 264 263 270 271 265 264 263 266 264 260 283 271 253 268 280 287 292 294 294 294 291 290 289 286 283 282 288 283
349 337 321 319 318 319 317 315 313 312 311 326 343 354 355 346 336 320 317 316 311 312 309 303 303 304 302 302 302 300 303 303 306 307 273 264 274 265 268 271 270 268 265 264 264 273 283 274 275 279 280 285 289 291 290 288 286 283 280 276 270 268
327 321 317 316 315 314 312 308 307 310 340 6 12 5 348 337 326 316 312 310 309 307 308 304 303 304 307 307 307 307 302 300 303 302 310 303 276 283 281 275 271 268 268 267 267 265 264 271 277 281 284 284 284 287 288 286 282 280 276 276 267 250
319 313 309 307 305 300 300 300 301 321 339 343 344 338 325 314 307 300 301 305 306 305 303 302 300 300 300 299 298 298 299 298 295 296 296 302 310 302 277 259 258 262 264 263 261 262 267 272 274 273 275 279 283 284 285 284 281 273 271 262 260 255
308 304 300 297 297 298 297 300 310 319 323 327 331 326 320 314 309 305 300 303 302 295 294 293 290 288 288 293 294 295 297 295 296 293 292 295 296 297 298 303 293 272 261 269 275 274 274 274 273 273 272 272 274 279 283 288 287 283 267 248 243 251
300 295 294 293 297 308 313 308 308 307 308 312 308 302 296 292 292 293 292 293 295 290 286 286 288 286 284 284 283 283 283 288 290 289 290 288 286 288 292 292 283 282 287 280 280 277 275 274 271 269 268 268 270 275 285 287 274 277 267 256 250 244